Location: Cathedral Gorge
(37.8167°N, 114.4167°W)
Time: 08:38:08
(UTC-07:00)

OTV 5 (USA 277) - Visible Passes

Search period start: 22 October 2017 00:00
Search period end: 01 November 2017 00:00
Orbit: 404 x 417 km, 43.0° (Epoch: 07 September)

Date Brightness Start Highest point End Pass type
(mag) Time Alt. Az. Time Alt. Az. Time Alt. Az.
22 Oct ? 19:23:21 10° W 19:26:26 33° SSW 19:27:24 27° S visible
23 Oct ? 18:32:09 10° WNW 18:35:26 52° SSW 18:38:43 10° SE visible
24 Oct ? 19:19:34 10° WSW 19:21:19 14° SW 19:23:04 10° S visible
25 Oct ? 18:27:47 10° W 18:30:24 21° SW 18:33:02 10° SSE visible
